Home > Weather > Rome > Past weeks

Flag for Italy Weather for the Past 2 Weeks in Rome, Italy

Now
54 °F

Light rain. Passing clouds.


Feels Like: 52 °F
Forecast: 53 / 60 °F
Wind: 6 mph from Southwest

Location: Rome / Ciampino

Current Time: Feb 13, 2016 at 2:09:50 AM

Latest Report: Feb 13, 2016 at 1:20 AM


Visibility: 6 mi

Pressure: 29.53 "Hg

Humidity: 94%

Dew point: 52 °F

Location of RomeLocation

Historic Weather in Rome — Graph

°F

Rome Temperature Yesterday

Maximum temperature yesterday: 55 °F (at 11:20 AM)
Minimum temperature yesterday: 48 °F (at 3:20 AM)
Average temperature yesterday: 52 °F

High & Low Weather Summary for the Past Weeks

 TemperatureHumidityPressure
High64 °F (Feb 2, 1:50 PM)100% (Jan 29, 3:50 AM)30.54 "Hg (Jan 29, 3:50 AM)
Low34 °F (Feb 5, 3:20 AM)28% (Feb 4, 3:50 PM)29.53 "Hg (Feb 10, 4:50 AM)
Average52 °F75%30.12 "Hg
* Reported Jan 29 12:20 AM — Feb 13 12:20 AM, Rome, Weather by CustomWeather, © 2016

Note: Actual official high and low records may vary slightly from our data, if they occured in-between our weather recording intervals... More about our weather records

Advertising

Rome Weather History for the Previous 24 Hours

 ConditionsComfort  
Time TempWeatherWind HumidityBarometerVisibility
12:20 AM
Sat, Feb 13
55 °FRain. Passing clouds.10 mph94%29.56 "Hg6 mi
11:50 PM
Fri, Feb 12
54 °FRain. Passing clouds.12 mph94%29.53 "Hg6 mi
11:20 PM54 °FRain. Passing clouds.15 mph88%29.56 "Hg6 mi
10:50 PM54 °FRain. Passing clouds.16 mph88%29.56 "HgN/A
10:20 PM52 °FLight rain. Passing clouds.18 mph88%29.56 "HgN/A
9:50 PM52 °FRain. Passing clouds.18 mph88%29.56 "HgN/A
9:20 PM52 °FRain. Passing clouds.18 mph88%29.62 "HgN/A
8:50 PM52 °FRain. Passing clouds.16 mph88%29.62 "HgN/A
8:20 PM52 °FRain. Passing clouds.17 mph88%29.62 "HgN/A
7:50 PM54 °FLight rain. Passing clouds.14 mph82%29.62 "HgN/A
7:20 PM54 °FLight rain. Passing clouds.14 mph82%29.65 "HgN/A
6:50 PM54 °FPassing clouds.12 mph82%29.68 "HgN/A
6:20 PM54 °FPassing clouds.13 mph82%29.68 "HgN/A
5:50 PM54 °FPassing clouds.12 mph82%29.68 "HgN/A
5:20 PM54 °FPartly sunny.8 mph82%29.68 "HgN/A
4:50 PM54 °FScattered clouds.9 mph82%29.68 "HgN/A
4:20 PM54 °FScattered clouds.9 mph82%29.71 "HgN/A
3:50 PM54 °FScattered clouds.10 mph82%29.71 "HgN/A
3:20 PM54 °FScattered clouds.13 mph77%29.71 "HgN/A
2:50 PM54 °FPartly sunny.14 mph82%29.68 "Hg6 mi
2:20 PM55 °FLight rain. Partly sunny.13 mph72%29.71 "Hg6 mi
1:50 PM54 °FLight rain. Partly sunny.12 mph72%29.74 "Hg6 mi
1:20 PM55 °FLight rain. Scattered clouds.10 mph67%29.74 "Hg6 mi
12:50 PM55 °FScattered clouds.10 mph63%29.71 "HgN/A
12:20 PM55 °FScattered clouds.10 mph63%29.74 "HgN/A
11:50 AM55 °FScattered clouds.14 mph59%29.71 "HgN/A
11:20 AM55 °FPassing clouds.13 mph59%29.74 "HgN/A
10:50 AM54 °FScattered clouds.15 mph63%29.74 "HgN/A
10:20 AM54 °FScattered clouds.12 mph67%29.74 "HgN/A
9:50 AM54 °FScattered clouds.12 mph67%29.74 "HgN/A
9:20 AM52 °FScattered clouds.12 mph72%29.77 "HgN/A
8:50 AM52 °FScattered clouds.12 mph72%29.77 "HgN/A
8:20 AM50 °FScattered clouds.13 mph76%29.74 "HgN/A
7:50 AM50 °FScattered clouds.12 mph76%29.77 "HgN/A
7:20 AM50 °FScattered clouds.16 mph82%29.74 "HgN/A
6:50 AM50 °FPassing clouds.15 mph82%29.77 "HgN/A
6:20 AM50 °FPassing clouds.15 mph82%29.77 "HgN/A
5:50 AM50 °FPassing clouds.14 mph82%29.77 "HgN/A
5:20 AM48 °FPassing clouds.12 mph82%29.77 "HgN/A
4:50 AM50 °FPassing clouds.10 mph76%29.80 "HgN/A
4:20 AM48 °FPassing clouds.10 mph82%29.77 "HgN/A
3:50 AM48 °FPassing clouds.10 mph82%29.80 "Hg5 mi
3:20 AM48 °FLight rain. Passing clouds.10 mph87%29.80 "Hg6 mi
2:50 AM50 °FRain. Passing clouds.9 mph76%29.80 "Hg5 mi
2:20 AM50 °FLight rain. Passing clouds.9 mph76%29.80 "HgN/A
Weather by CustomWeather, © 2016

See weather overviewHow to use our weather pages